Home   Weather   Perth   Past weeks

Flag for United Kingdom Past Weather in Perth, Scotland, United Kingdom — Yesterday and Last 2 Weeks

39 °F


Feels Like: 39 °F
Forecast: 36 / 48 °F
Wind: 1 mph from South

Location: Strathallan

Current Time: Oct 24, 2016 at 6:24:00 AM

Latest Report: Oct 24, 2016 at 5:00 AM

Visibility: 7 mi

Pressure: 30.09 "Hg

Humidity: 99%

Dew Point: 39 °F

Location of PerthLocation

Past Weather in Perth — Graph


Perth Temperature Yesterday

Maximum temperature yesterday: 48 °F (at 2:00 PM)
Minimum temperature yesterday: 42 °F (at 11:00 PM)
Average temperature yesterday: 44 °F

High & Low Weather Summary for the Past Weeks

High58 °F (Oct 9, 3:00 PM)100% (Oct 9, 6:00 AM)30.54 "Hg (Oct 9, 6:00 AM)
Low34 °F (Oct 10, 8:00 AM)48% (Oct 9, 3:00 PM)29.66 "Hg (Oct 15, 4:00 PM)
Average47 °F92%30.13 "Hg
* Reported Oct 9 5:00 AM — Oct 24 5:00 AM, Perth, Weather by CustomWeather, © 2016

Note: Actual official high and low records may vary slightly from our data, if they occured in-between our weather recording intervals... More about our weather records


Perth Weather History for the Previous 24 Hours

Scroll right to see more
Time TempWeatherWind HumidityBarometerVisibility
5:00 AM
Mon, Oct 24
39 °FChilly.1 mph99%30.09 "Hg7 mi
4:00 AM39 °FRain showers. Overcast.1 mph99%30.10 "Hg3 mi
3:00 AM39 °FDuststorm.1 mph97%30.11 "Hg1 mi
2:00 AM41 °FQuite cool.1 mph98%30.11 "Hg14 mi
1:00 AM41 °FQuite cool.2 mph98%30.11 "Hg9 mi
12:00 AM41 °FQuite cool.1 mph98%30.11 "Hg14 mi
11:00 PM
Sun, Oct 23
42 °FQuite cool.2 mph96%30.11 "Hg17 mi
10:00 PM43 °FRain showers. Overcast.2 mph96%30.11 "Hg22 mi
9:00 PM42 °FDrizzle. Overcast.2 mph96%30.10 "Hg6 mi
8:00 PM44 °FQuite cool.5 mph94%30.10 "Hg28 mi
7:00 PM43 °FQuite cool.2 mph95%30.10 "Hg22 mi
6:00 PM45 °FLots of rain. Overcast.7 mph92%30.09 "Hg5 mi
5:00 PM45 °FCool.6 mph92%30.09 "Hg31 mi
4:00 PM48 °FCool.3 mph88%30.10 "Hg25 mi
3:00 PM47 °FCool.9 mph79%30.10 "Hg31 mi
2:00 PM48 °FCool.3 mph87%30.11 "Hg19 mi
1:00 PM46 °FCool.1 mph91%30.13 "Hg19 mi
12:00 PM45 °FRain showers. Cloudy.5 mph92%30.15 "Hg12 mi
11:00 AM46 °FCool.3 mph92%30.15 "Hg18 mi
10:00 AM44 °FQuite cool.3 mph96%30.16 "Hg17 mi
9:00 AM44 °FRain showers. Cloudy.3 mph97%30.16 "Hg10 mi
8:00 AM43 °FLots of rain. Overcast.2 mph98%30.16 "Hg8 mi
7:00 AM43 °FRain. Overcast.2 mph97%30.16 "Hg5 mi
6:00 AM43 °FQuite cool.2 mph97%30.16 "Hg9 mi
Weather by CustomWeather, © 2016

See weather overviewHow to use our weather pages